{"data":{"norad_id":61689,"epoch":"2026-05-25T01:12:00.419904Z","epoch_age_seconds":67173,"freshness":"FRESH","line1":"1 61689U 24195C   26145.05000486  .00003458  00000+0  33383-4 0  9995","line2":"2 61689  53.1594  10.0697 0000872  74.2526 285.8588 15.69711614 91022","mean_motion":15.69711614,"eccentricity":8.72e-5,"inclination_deg":53.1594,"raan_deg":10.0697,"arg_perigee_deg":74.2526,"mean_anomaly_deg":285.8588,"bstar":3.3383e-5,"rev_number":9102,"period_min":91.736595891683,"perigee_km":359.13459045725,"apogee_km":360.30967308984,"semimajor_km":6737.8591317735,"source":"CELESTRAK","updated_at":"2026-05-25T13:38:19.439525Z"}}